Temp
19 19 20 20 20 19 19 19 18 19 18 18 18 18 18 18 18 18 18 18 19 19 18 18 18 18 18 18 18 17 17 17 17 17 17 17 17 17 17 17 17 17 17
19 20 20 20 20 19 19 18 18 19 19 18 18 18 19 19 19 19 19 19 18 18 18 18 18 18 18 17 17 17 17 18 18 17 17 17 17 17 17 17 17 17 17
19 20 20 20 20 20 19 20 19 20 20 19 19 19 19 19 19 19 19 19 18 18 18 18 18 17 17 17 17 17 17 17 17 17 17 17 17 17 17 17 17 17 17
20 20 20 20 20 20 20 20 20 20 20 20 19 19 19 19 19 19 19 19 18 18 17 17 17 17 17 17 16 17 17 17 17 17 17 17 18 17 17 17 17 17 16
21 21 21 20 20 20 20 20 20 20 20 20 20 19 19 19 19 19 19 19 19 18 17 17 17 17 17 17 17 17 17 17 17 17 17 17 18 17 17 17 17 17 16
20 21 20 20 20 20 20 20 20 20 20 20 21 20 19 19 19 19 19 19 19 19 18 17 17 17 17 17 17 17 17 17 17 17 17 17 17 17 17 17 17 16 16
19 20 20 20 20 20 20 20 20 20 20 20 20 20 20 19 19 19 19 19 19 19 19 17 17 17 17 17 17 17 17 17 17 17 17 17 17 17 17 17 17 17 17
19 19 20 20 20 20 20 20 20 20 19 20 19 20 20 19 19 19 19 19 19 19 19 17 17 17 17 17 17 17 17 17 17 17 17 17 17 17 17 16 16 16 16
18 19 19 19 19 19 19 19 20 19 19 19 20 19 20 19 19 19 19 19 19 19 19 18 17 17 17 17 17 17 17 17 17 17 17 17 17 17 16 16 16 16 16
19 19 19 19 19 19 19 19 19 19 19 19 19 19 19 19 19 18 19 18 18 19 18 18 18 17 17 17 17 17 17 17 17 17 17 16 17 16 16 16 16 15 15
19 19 19 19 19 19 19 19 19 19 19 19 19 19 19 19 18 18 18 18 18 18 18 18 18 18 17 17 17 17 17 17 17 17 17 17 16 16 16 15 15 15 15
19 19 19 19 19 19 19 19 19 19 19 19 19 19 18 18 18 18 18 18 18 18 18 18 18 18 17 17 17 17 17 17 17 17 17 17 16 16 16 15 15 15 15
18 19 19 19 19 19 19 19 19 19 19 19 19 19 19 19 18 18 18 18 18 18 17 17 17 16 17 18 17 17 17 17 17 17 17 17 17 16 16 16 15 15 15
16 17 18 18 18 18 18 18 18 18 19 19 18 18 17 18 18 18 18 18 17 17 17 17 17 17 17 17 18 17 17 17 17 17 17 17 17 16 17 16 15 15 15
16 17 17 17 17 18 18 18 18 18 18 18 18 18 18 17 17 17 18 18 17 17 17 17 17 17 16 16 17 17 17 18 18 17 18 18 17 17 16 16 16 16 15
15 15 16 17 17 17 18 18 17 17 17 17 17 17 17 18 17 17 17 17 18 18 17 17 17 17 17 16 16 17 18 17 18 18 17 18 18 17 17 17 16 16 16
12 13 14 15 16 16 16 16 16 16 16 16 16 17 17 17 17 17 17 16 17 17 18 17 17 17 17 17 17 17 17 18 18 18 18 18 18 18 17 17 17 16 16
12 13 13 13 13 14 14 15 15 15 16 16 16 16 16 16 16 16 16 17 17 17 17 17 17 17 17 16 16 17 17 17 18 18 18 18 18 18 18 18 17 17 16
11 12 13 13 13 13 14 14 14 14 14 15 15 15 16 16 16 15 16 16 17 15 16 17 16 16 16 16 16 16 16 17 17 17 17 18 18 18 18 18 18 18 17
10 11 11 11 12 12 12 13 13 14 14 14 14 15 15 15 15 14 15 15 16 16 15 16 16 16 16 16 16 16 16 16 17 17 17 18 18 18 18 18 18 18 18
10 10 10 10 10 10 10 10 10 9 11 12 13 13 13 14 14 14 14 14 14 14 14 15 16 16 16 16 16 16 15 16 16 16 15 16 18 19 18 18 18 18 18
10 10 10 9 9 9 8 8 7 7 7 8 10 11 12 13 13 13 13 13 14 14 13 14 15 15 15 16 16 15 16 15 15 16 17 16 17 18 18 17 18 18 19
9 9 9 9 8 8 8 7 7 6 6 7 7 9 10 11 11 12 12 13 13 13 13 13 13 14 16 16 15 16 15 16 17 17 15 15 15 16 18 17 17 17 18
9 9 9 8 8 8 7 7 6 6 6 7 7 7 8 10 10 11 12 12 12 12 12 13 13 13 14 15 15 15 15 16 16 17 16 17 16 15 15 16 17 17 17
9 9 8 8 8 7 7 6 6 6 7 7 7 7 7 9 10 11 11 11 11 12 12 12 12 12 13 14 15 15 15 15 15 15 16 17 18 18 18 17 16 17 17
9 9 8 8 7 7 6 6 6 6 7 7 7 8 8 8 10 11 11 11 11 11 11 12 12 12 12 12 13 15 15 15 15 14 14 15 16 16 17 17 17 17 17
Height
834 835 835 837 837 837 837 837 837 837 836 837 837 838 838 839 840 840 841 841 841 842 842 842 843 843 843 843 843 843 842 842 842 842 842 842 842 842 842 841 840 840 839
835 835 836 837 837 838 838 838 839 838 838 837 838 839 839 839 840 841 841 842 843 844 844 844 844 845 845 845 845 845 844 844 844 844 845 845 844 845 844 844 843 842 842
834 834 835 836 837 837 838 839 839 840 839 839 840 840 840 841 841 842 843 844 844 844 845 846 846 846 847 847 847 847 847 846 846 846 846 847 847 847 847 846 845 845 844
833 834 834 835 837 837 838 840 840 841 841 841 842 842 842 842 842 843 844 844 845 845 846 847 848 848 848 848 848 848 848 848 848 848 848 848 849 849 848 848 847 847 846
833 833 833 836 837 838 839 840 841 841 841 842 842 843 843 842 843 843 844 845 845 846 846 847 849 850 850 850 849 849 850 850 850 850 849 850 850 850 850 849 849 849 848
833 832 834 836 837 839 839 839 841 841 841 842 842 843 843 843 844 843 844 845 845 846 847 847 849 851 851 851 851 850 851 851 851 851 852 852 852 852 851 851 850 850 850
833 833 835 837 839 839 841 841 842 842 842 842 842 843 843 844 844 845 845 846 846 846 847 848 849 850 851 852 852 852 852 852 852 852 852 852 852 853 853 852 852 852 852
836 835 836 838 838 839 840 841 842 843 843 842 843 843 843 844 845 846 845 846 846 847 847 848 849 850 851 852 852 853 853 853 853 853 853 853 853 853 854 854 853 853 853
838 838 837 838 838 839 839 841 841 842 843 844 843 844 844 844 844 845 845 846 846 846 846 847 848 849 850 851 852 852 853 853 853 853 852 853 853 853 853 854 854 853 853
840 839 838 838 839 839 840 840 841 841 842 842 843 843 843 844 844 844 845 845 845 846 846 846 847 849 849 850 850 851 852 852 853 853 853 852 852 853 853 853 853 853 853
840 840 840 840 839 839 839 839 839 840 840 841 841 842 842 843 843 843 843 844 845 845 845 846 846 847 848 849 850 850 851 851 852 852 852 852 852 853 852 852 852 852 852
840 840 840 839 839 839 839 838 838 838 837 838 839 840 841 841 841 842 842 842 843 844 844 844 845 845 846 847 847 848 848 849 850 850 850 850 851 852 851 851 851 851 851
841 840 839 839 838 837 837 837 837 836 835 835 835 836 837 838 839 839 839 840 840 841 842 842 843 844 844 844 845 845 846 847 847 848 848 849 849 850 850 850 849 849 849
840 839 838 837 837 836 835 835 835 834 834 833 833 833 834 834 834 834 835 836 837 838 838 839 839 840 841 841 841 842 843 843 845 845 846 846 847 847 848 848 848 847 847
838 837 836 835 835 834 833 833 832 832 831 831 831 831 831 831 831 831 830 831 832 834 835 835 835 836 837 838 838 838 839 839 840 841 842 843 844 844 845 846 845 846 845
836 834 833 832 831 830 830 829 829 829 829 828 828 828 828 827 827 827 827 827 827 827 829 830 831 831 832 833 834 834 834 834 835 836 837 838 839 840 841 842 843 843 843
835 833 831 829 828 826 825 826 826 826 826 825 825 825 825 825 824 824 823 823 823 823 823 824 825 826 827 827 828 828 829 828 829 829 831 832 833 835 836 837 838 839 840
833 832 830 828 826 824 822 822 821 822 822 822 822 821 821 821 821 820 820 819 820 819 819 819 819 819 819 821 821 821 822 823 823 824 825 825 826 828 830 831 832 833 835
832 830 828 826 824 822 821 819 817 817 816 816 816 816 817 817 816 816 815 815 815 815 814 813 814 814 814 814 814 814 815 816 817 819 819 818 818 820 822 824 826 828 829
830 828 825 823 821 819 817 814 812 811 811 811 811 811 811 811 811 811 810 809 809 809 809 809 809 808 809 809 808 807 806 807 809 812 814 816 810 811 814 816 819 820 822
827 825 822 819 817 815 812 809 807 806 805 804 804 805 804 804 804 804 804 804 804 803 802 803 804 804 802 804 804 802 801 799 796 801 808 810 807 804 806 809 810 812 813
826 823 819 817 814 812 809 807 805 803 800 798 797 797 797 796 796 796 796 797 797 796 797 798 799 798 798 797 798 798 798 797 796 795 793 799 800 798 798 800 805 805 805
823 821 817 814 811 808 805 802 799 797 794 793 792 790 789 789 788 789 789 789 789 790 789 791 793 793 792 792 792 795 794 793 791 791 791 790 791 789 790 793 792 797 799
821 818 814 810 807 804 802 798 796 793 791 789 787 784 782 781 780 780 781 781 782 782 783 783 785 787 787 785 786 785 785 786 787 787 785 785 784 782 784 785 787 788 790
817 813 810 807 804 801 799 796 793 789 787 784 782 780 777 774 774 774 774 774 773 774 775 776 778 779 781 782 780 780 780 779 781 782 777 777 777 779 780 780 781 781 783
814 811 807 804 800 798 795 792 789 786 783 780 777 775 773 770 768 768 769 767 767 767 768 770 771 773 774 775 776 776 775 774 775 777 776 775 775 775 775 776 775 776 777
Wind_Speed
5 5 7 5 7 8 10 9 9 9 9 10 10 9 8 8 6 7 9 10 11 10 10 10 11 11 12 11 11 12 14 13 16 17 17 18 18 16 16 15 16 16 19
2 4 6 6 5 7 8 9 8 8 8 9 9 9 9 10 8 6 8 10 10 10 10 11 12 12 12 12 11 12 12 12 13 15 17 16 17 14 15 14 16 17 18
3 4 7 8 6 6 7 7 8 5 7 8 8 8 8 7 6 7 6 10 10 10 10 11 12 13 13 12 12 11 11 12 13 14 15 13 13 14 14 15 14 14 16
4 3 8 10 8 7 7 8 5 4 6 6 8 7 5 3 4 5 5 11 10 10 10 11 11 13 12 11 10 10 10 10 11 12 13 14 11 12 13 12 13 13 15
4 3 7 9 8 7 7 8 6 4 3 5 5 5 3 4 4 3 7 12 8 8 10 11 10 10 9 7 8 7 7 7 8 12 14 13 10 11 11 11 11 12 12
2 2 6 8 7 6 6 9 8 4 3 2 3 4 3 5 5 8 13 10 7 6 8 10 10 8 6 5 5 6 8 8 10 11 8 8 10 10 11 10 10 11 11
8 3 5 4 3 2 3 5 6 5 5 2 2 4 4 5 5 9 10 6 5 5 5 9 9 8 6 4 3 5 7 7 8 9 9 7 9 10 10 9 9 9 9
12 9 6 5 4 3 2 3 5 4 4 4 1 2 5 5 5 7 7 5 4 4 4 7 8 9 7 5 3 4 5 6 6 6 7 7 6 9 8 8 8 7 7
14 11 8 6 4 2 2 2 4 5 6 7 5 3 4 6 8 7 7 6 5 5 4 6 8 9 9 7 5 3 7 6 4 6 8 8 7 6 8 7 7 7 7
11 12 12 8 5 3 1 2 4 5 6 6 7 7 6 8 9 9 8 8 8 7 6 6 7 9 10 9 7 5 7 7 5 7 8 6 8 7 6 6 7 6 6
9 11 10 9 9 8 5 3 5 7 8 9 9 9 10 9 10 10 11 10 10 10 9 8 7 9 11 11 10 8 7 9 8 8 8 7 8 8 8 7 8 7 6
11 10 11 11 9 7 7 7 6 5 8 10 11 11 12 11 12 12 13 13 12 12 12 11 10 10 11 13 14 13 12 11 11 11 10 9 9 9 9 9 8 8 7
12 13 12 11 11 12 11 10 10 9 8 7 10 13 14 13 13 14 15 15 16 15 14 14 13 12 14 15 16 17 16 14 12 13 13 12 11 10 11 11 10 10 9
14 13 11 11 11 11 12 12 13 12 10 9 9 9 11 15 16 16 17 18 18 18 18 18 18 17 17 17 17 17 19 19 17 16 14 14 14 12 13 12 13 12 12
15 16 15 15 15 14 14 13 12 12 12 11 11 10 10 11 14 18 20 20 20 21 21 21 22 21 19 18 19 19 20 21 21 20 19 14 16 16 15 15 14 14 14
13 13 13 13 14 15 16 15 13 12 12 12 12 13 12 13 14 13 16 21 23 22 23 24 25 24 24 21 21 22 22 22 23 24 23 20 17 19 18 17 16 16 16
10 11 11 11 11 12 12 13 15 14 14 14 13 14 15 15 16 16 16 15 21 22 23 25 26 25 25 26 26 25 26 25 25 25 26 25 22 20 21 22 20 19 18
11 14 13 13 13 12 12 13 15 15 16 17 16 16 15 15 16 17 19 19 19 19 25 25 28 27 29 29 29 31 30 30 28 27 27 28 26 24 22 23 24 23 21
13 15 16 17 18 18 18 18 19 19 19 20 19 20 19 18 17 18 21 22 21 20 21 24 27 27 26 29 31 32 32 32 32 31 31 30 29 27 26 26 25 26 26
16 15 18 20 20 21 23 24 25 25 24 23 23 23 23 22 21 21 22 22 23 24 20 21 24 27 28 25 27 30 31 34 35 32 34 37 32 29 28 28 27 28 29
16 18 19 21 22 23 24 23 22 22 27 28 27 27 28 27 25 24 24 24 23 25 24 22 20 22 26 26 20 20 23 28 26 33 33 36 35 30 29 30 31 30 30
18 19 20 21 22 23 23 22 18 20 21 26 30 30 30 30 28 26 26 26 25 24 22 22 22 21 20 20 14 9 4 7 21 29 34 38 39 32 30 32 34 33 32
19 20 20 22 24 24 24 23 22 20 18 16 18 25 26 24 22 21 22 24 26 25 25 23 24 23 20 18 25 14 2 4 4 15 29 35 29 27 34 34 32 36 34
21 20 21 23 25 25 24 25 20 19 20 18 21 21 23 24 23 21 21 22 25 27 27 26 23 22 21 21 17 27 27 13 3 3 7 12 15 17 21 28 34 35 33
19 21 21 23 24 24 24 23 21 21 21 19 21 21 21 20 20 20 20 21 25 27 27 25 24 22 23 22 22 17 15 19 17 10 8 9 16 17 18 22 22 22 24
21 22 24 24 24 23 22 22 22 24 22 20 18 17 20 21 20 18 20 22 25 26 26 24 23 23 21 22 22 22 20 9 9 6 5 9 12 19 25 28 28 29 31
Wind_Direction
99 163 169 180 149 132 123 115 104 93 106 115 118 119 118 115 109 125 131 121 109 113 108 110 108 107 107 104 104 104 97 99 92 99 98 99 96 90 88 94 75 76 89
345 212 198 183 173 140 129 124 112 77 95 116 123 125 125 122 122 114 140 126 117 112 113 115 115 113 110 106 107 103 100 101 101 102 101 97 95 89 90 83 82 78 83
358 208 203 195 185 163 136 94 111 77 86 110 121 122 124 133 141 142 130 129 126 123 121 120 120 118 114 107 109 107 105 106 105 117 111 98 96 96 92 91 82 81 82
341 241 209 196 190 177 156 125 108 113 66 106 127 125 125 167 163 162 147 144 132 129 128 126 127 125 120 117 110 113 112 110 111 115 122 113 103 100 102 98 89 92 84
298 238 206 192 194 185 176 155 133 178 85 68 137 141 99 115 159 189 174 153 145 140 135 133 135 136 135 124 114 122 126 124 126 114 118 118 114 112 109 105 103 93 92
25 212 166 192 194 199 193 177 153 221 183 75 108 162 116 125 133 133 143 155 154 144 142 145 149 156 157 132 120 124 138 126 126 133 124 118 124 120 116 114 112 108 98
52 95 130 161 187 202 234 210 194 210 211 160 94 173 158 151 150 153 154 159 162 153 151 157 163 170 170 151 130 149 153 147 139 133 136 130 146 125 128 125 117 112 109
60 75 113 138 153 168 176 221 237 252 235 232 246 188 191 174 182 182 185 186 184 180 171 171 178 184 179 173 153 167 172 165 165 174 162 152 135 146 135 138 132 128 123
59 70 83 96 117 140 161 213 229 241 267 268 262 253 227 204 201 203 214 220 215 212 201 192 195 197 196 192 187 192 197 197 212 187 180 176 163 153 148 150 153 150 145
54 58 61 63 56 60 25 283 271 259 255 256 269 265 244 232 221 224 228 226 229 230 224 216 210 210 208 210 208 207 207 215 223 205 198 202 184 185 197 180 173 172 172
43 38 38 35 34 28 12 332 287 271 262 256 254 263 261 242 237 236 235 237 238 238 237 234 228 222 222 222 224 223 221 226 227 220 215 210 189 199 199 197 191 193 201
353 2 357 352 350 343 331 328 324 305 272 258 255 251 254 251 245 248 248 243 243 245 244 244 242 236 230 229 231 230 231 234 235 232 229 221 215 219 214 215 212 212 219
328 330 336 330 323 317 309 302 298 298 296 284 259 247 247 248 247 250 253 244 241 242 244 245 244 240 240 240 239 238 237 237 235 236 240 235 234 228 227 228 229 226 226
327 329 329 328 323 318 310 307 300 295 289 284 287 277 263 253 248 247 248 248 247 246 245 244 247 249 251 248 245 245 243 239 241 241 247 244 239 235 233 234 237 237 235
322 319 316 314 309 302 298 300 298 296 295 289 282 279 283 276 274 264 253 250 251 251 250 249 248 249 251 252 252 249 248 246 244 245 247 250 240 242 240 241 241 241 243
326 324 317 309 305 299 286 282 284 290 294 291 286 282 273 269 268 276 275 265 257 254 257 253 252 251 253 250 252 253 252 251 249 247 247 249 246 246 246 244 242 245 245
342 339 334 326 317 308 293 279 279 283 286 287 289 285 281 277 271 266 264 272 269 269 261 255 253 256 253 256 253 251 252 252 251 250 247 248 249 251 250 247 246 243 245
325 327 327 327 325 316 305 290 279 276 276 278 282 283 281 279 276 272 269 263 260 268 265 261 255 250 248 254 257 254 251 252 252 251 250 247 246 250 253 250 248 249 246
324 322 316 315 315 313 302 295 289 283 276 273 274 276 277 280 281 276 270 266 265 266 260 252 256 251 243 246 251 255 258 255 255 255 253 247 246 248 253 257 254 252 252
327 325 321 317 314 309 303 297 291 288 284 281 278 277 277 278 278 276 273 270 263 260 258 259 256 255 250 248 246 250 250 258 256 257 256 256 247 246 250 255 257 255 254
342 344 343 338 334 329 320 313 306 299 295 290 284 280 277 277 277 277 276 273 270 261 255 250 256 256 244 248 247 254 251 249 259 264 259 257 252 246 251 256 255 256 257
334 338 338 339 335 333 329 319 304 298 295 293 290 284 280 279 278 275 271 272 270 270 260 255 250 252 254 238 237 235 261 232 241 247 249 256 251 247 246 257 259 258 257
336 334 330 330 329 328 327 321 313 303 300 301 297 294 288 283 278 270 268 267 264 265 263 259 253 247 251 245 238 232 212 223 182 231 238 240 247 246 247 249 259 262 262
334 334 330 329 329 326 325 317 304 296 291 291 288 286 287 284 275 266 265 265 263 260 260 258 253 251 248 247 241 236 237 259 222 232 216 248 255 252 254 257 258 260 263
333 336 334 331 329 329 321 315 301 294 288 288 290 286 287 285 280 270 268 269 263 257 256 257 255 248 248 251 249 239 238 243 254 245 267 251 259 264 267 265 263 265 265
332 332 334 331 324 324 324 312 307 291 288 290 283 288 288 288 291 280 279 276 268 258 254 254 252 253 250 250 253 254 242 231 218 221 246 264 261 266 263 261 268 267 269